Regional Weather Roundup
Issued by NWS Little Rock, AR

Home | Current Version | Previous Version | Text Only | Print | Product List | Glossary On
Versions: 1 2 3 4 5 6 7 8 9 10 11 12 13 14 15 16 17 18 19 20 21 22 23 24 25 26 27 28 29 30 31 32 33 34 35 36 37 38 39 40 41 42 43 44 45 46 47 48 49 50
000
ASUS44 KLZK 011705
RWRLZK

WEATHER ROUNDUP FOR ARKANSAS
NATIONAL WEATHER SERVICE LITTLE ROCK AR
1100 AM CST SUN FEB 01 2015

NOTE: "FAIR" INDICATES FEW OR NO CLOUDS BELOW 12,000 FEET WITH NO
SIGNIFICANT WEATHER AND/OR OBSTRUCTIONS TO VISIBILITY.

ARZ001-003-010-029-011800-
NORTHWEST ARKANSAS

CITY           SKY/WX    TMP DP  RH WIND       PRES   REMARKS
FAYETTEVILLE   CLOUDY    41  41 100 W16G28    29.82R
FORT SMITH     CLOUDY    48  43  82 W25       29.85R
HARRISON       CLOUDY    46  43  89 W12G25    29.75R
BENTONVILLE    CLOUDY    39  36  87 NW24G31   29.83R
ROGERS         CLOUDY    38  37  97 W26G36    29.80R
SILOAM SPGS    CLOUDY    37  30  75 NW24G31   29.87R
HIGHFILL       LGT RAIN  39  37  92 W18G32    29.82R
SPRINGDALE     LGT RAIN  43  41  93 W12G29    29.82R
$$

ARZ004-005-016-011800-
NORTH CENTRAL ARKANSAS

CITY           SKY/WX    TMP DP  RH WIND       PRES   REMARKS
BATESVILLE     CLOUDY    52  48  87 W12       29.77S
FLIPPIN        CLOUDY    50  45  81 SW5       29.74F
MTN HOME       CLOUDY    49  47  93 SW6       29.73F
$$

ARZ040-041-011800-
WEST CENTRAL ARKANSAS

CITY           SKY/WX    TMP DP  RH WIND       PRES   REMARKS
MENA           CLOUDY    54  50  87 W13G18    29.85R
MOUNT IDA      CLOUDY    53  50  89 CALM      29.79S
$$

ARZ009-017-025-026-028-011800-
NORTHEAST ARKANSAS

CITY           SKY/WX    TMP DP  RH WIND       PRES   REMARKS
CORNING        FAIR      48  48 100 SW15      29.74F
JONESBORO      CLOUDY    51  51 100 SW14      29.76F FOG
NEWPORT        LGT RAIN  53  53 100 SW10      29.78S FOG
WALNUT RIDGE   CLOUDY    48  45  87 SW8       29.74F
BLYTHEVILLE    LGT RAIN  54  53  97 SW16      29.77F
$$

ARZ022-023-033-042-044-011800-
CENTRAL ARKANSAS

CITY           SKY/WX    TMP DP  RH WIND       PRES   REMARKS
LITTLE ROCK    HVY RAIN  57  54  89 W9        29.80S VSB 1
N LITTLE ROCK  CLOUDY    54  54 100 W8        29.80S
JACKSONVILLE   DRIZZLE   54  54 100 W10       29.79R
SEARCY         RAIN      51  51 100 W6        29.80S FOG
HOT SPRINGS    LGT RAIN  53  52  96 W5        29.82S
RUSSELLVILLE   CLOUDY    49  46  90 W14       29.80S
CLINTON        CLOUDY    45  45 100 CALM      29.80S FOG
$$

ARZ036-011800-
EAST ARKANSAS

CITY           SKY/WX    TMP DP  RH WIND       PRES   REMARKS
WEST MEMPHIS   LGT RAIN  54  54 100 S15G26    29.79F
$$

ARZ050-053-066-070-073-011800-
SOUTHWEST ARKANSAS

CITY           SKY/WX    TMP DP  RH WIND       PRES   REMARKS
ARKADELPHIA    RAIN      57  56  97 W8        29.82R FOG
CAMDEN         CLOUDY    59  55  88 MISG      29.82F
TEXARKANA      HVY RAIN  55  54  96 NW7       29.86R FOG
EL DORADO      CLOUDY    60  58  92 S15       29.84F
DE QUEEN       CLOUDY    55  52  89 NW7       29.84R
$$

ARZ056-057-069-011800-
SOUTHEAST ARKANSAS

CITY           SKY/WX    TMP DP  RH WIND       PRES   REMARKS
PINE BLUFF     CLOUDY    57  55  93 S16       29.80F
STUTTGART      CLOUDY    57  54  88 S18       29.79F
MONTICELLO     LGT RAIN  58  55  90 SW12G25   29.84F

$$




USA.gov is the U.S. government's official web portal to all federal, state and local government web resources and services.